Location: Unspecified
(47.4992°N, 121.7766°W)
Time: 02:29:01
(UTC-08:00)

ISS - Visible Passes

Search period start: 07 February 2026 00:00
Search period end: 17 February 2026 00:00
Orbit: 414 x 429 km, 51.6° (Epoch: 6 February)

Date Brightness Start Highest point End Pass type
(mag) Time Alt. Az. Time Alt. Az. Time Alt. Az.
10 Feb -0.7 06:36:54 10° S 06:38:55 15° SE 06:40:57 10° E visible
12 Feb -2.2 06:38:16 10° SSW 06:41:21 36° SE 06:44:28 10° ENE visible
13 Feb -1.5 05:51:40 10° SSW 05:54:25 24° SE 05:57:10 10° E visible
14 Feb -1.1 05:06:00 13° SSE 05:07:29 16° SE 05:09:37 10° E visible
14 Feb -3.7 06:40:33 10° WSW 06:43:54 82° SSE 06:47:15 10° ENE visible
15 Feb -3.2 05:54:16 16° SW 05:56:48 56° SSE 06:00:06 10° ENE visible
16 Feb -2.7 05:09:21 35° SSE 05:09:44 37° SE 05:12:52 10° ENE visible
